DateTimeUTC,F1_A11,F1_S11,BsB_S11,BsG_S11,BsR_S11,BbsB_S11,BbsG_S11,BbsR_S11,BaB_A11,BaG_A11,BaR_A11,Tu_S11,T_S11,Uu_S11,U_S11,P_S11,T1_A11
2021-12-16T16:00:00Z,00000200,21000000,,,,,,,0000.03,0000.38,0000.27,20.7,27.4,,00.0,0642.9,31.2
2021-12-16T16:01:00Z,00000200,21000000,,,,,,,0000.31,-000.01,0000.30,20.7,27.4,,00.0,0642.9,31.2
2021-12-16T16:02:00Z,00000200,21000000,,,,,,,0000.24,0000.18,-000.35,20.7,27.4,,00.0,0642.9,31.2
2021-12-16T16:03:00Z,00000200,61000000,,,,,,,0000.26,-000.14,0000.33,20.7,27.4,,00.0,0642.9,31.2
2021-12-16T16:04:00Z,00000200,41000000,-000.17,0000.23,0000.29,-001.02,-000.07,0000.06,0000.06,0000.75,0000.30,21.0,27.3,,00.0,0643.7,31.2
2021-12-16T16:05:00Z,00000200,01000000,0000.44,0000.24,-000.30,-000.41,-000.06,0000.10,0000.33,-000.16,-000.05,21.0,27.3,,00.0,0643.7,31.2
2021-12-16T16:06:00Z,00000200,01000000,0000.06,0000.42,0000.32,-000.29,-000.27,0000.30,0000.26,0000.65,0000.36,21.1,27.3,,00.0,0643.7,31.2
2021-12-16T16:07:00Z,00000200,01000000,-000.02,0000.03,0000.08,0000.22,0000.11,0000.05,-000.19,-000.04,-000.00,21.1,27.3,,00.0,0643.7,31.2
2021-12-16T16:08:00Z,00000200,01000000,-000.52,0000.51,-000.13,-000.16,0000.26,-000.15,0000.17,-000.26,-000.07,21.1,27.4,,00.0,0643.6,31.2
2021-12-16T16:09:00Z,00000200,01000000,-000.42,-000.07,-000.09,-000.61,0000.25,-000.33,-000.01,0000.35,-000.13,21.1,27.4,,00.0,0643.6,31.2
2021-12-16T16:10:00Z,00000200,01000000,-000.16,0000.44,0000.03,-000.07,0000.04,-000.06,0000.05,-000.02,0000.26,21.1,27.4,,00.0,0643.7,31.2
2021-12-16T16:11:00Z,00000200,01000000,-000.53,0000.16,-000.08,-000.05,0000.03,0000.28,-000.02,0000.10,-000.13,21.1,27.4,,00.0,0643.6,31.2
2021-12-16T16:12:00Z,00000200,01000000,-000.36,-000.05,0000.15,-000.13,-000.15,0000.01,-000.09,0000.25,0000.10,21.2,27.4,,00.0,0643.7,31.2
2021-12-16T16:13:00Z,00000200,01000000,0000.17,0000.14,0000.07,0000.37,-000.24,-000.09,0000.32,-000.08,0000.04,21.1,27.4,,00.0,0643.7,31.2
2021-12-16T16:14:00Z,00000200,01000000,0000.80,0000.10,0000.23,0000.22,-000.02,0000.38,0000.19,-000.39,0000.03,21.1,27.4,,00.0,0643.7,31.2
2021-12-16T16:15:00Z,00000200,01000000,0000.26,0000.30,0000.04,-000.01,-000.41,0000.06,0000.19,0000.25,0000.08,21.0,27.4,,00.0,0643.6,31.2
2021-12-16T16:16:00Z,00000200,01000000,0000.12,-000.16,-000.11,0000.15,-000.30,-000.24,-000.03,0000.04,0000.14,20.9,27.3,,00.0,0643.7,31.2
2021-12-16T16:17:00Z,00000200,01000000,-000.67,-000.04,-000.14,-000.29,-000.33,0000.23,-000.02,0000.17,0000.16,20.9,27.3,,00.0,0643.7,31.2
2021-12-16T16:18:00Z,00000200,01000000,-000.79,-000.01,0000.13,-000.73,0000.09,0000.38,-000.20,-000.15,-000.04,20.9,27.3,,00.0,0643.7,31.2
2021-12-16T16:19:00Z,00000200,01000000,0000.45,0000.01,-000.01,-000.16,0000.03,-000.08,0000.67,0000.67,0000.16,21.0,27.3,,00.0,0643.7,31.2
2021-12-16T16:20:00Z,00000200,01000000,-000.15,0000.13,-000.14,-000.30,-000.17,-000.23,0000.09,0000.16,0000.17,21.0,27.3,,00.0,0643.7,31.2
2021-12-16T16:21:00Z,00000200,01000000,0000.25,0000.18,-000.04,-000.52,0000.21,0000.10,-000.03,-000.20,-000.02,21.0,27.3,,00.0,0643.7,31.2
2021-12-16T16:22:00Z,00000200,01000000,0000.65,-000.07,0000.05,0000.01,-000.12,0000.19,0000.12,0000.29,0000.01,21.0,27.4,,00.0,0643.7,31.2
2021-12-16T16:23:00Z,00000200,01000000,0000.98,0000.37,-000.13,0000.06,-000.43,-000.05,0000.05,-000.05,0000.11,21.0,27.4,,00.0,0643.7,31.2
2021-12-16T16:24:00Z,00000200,01000000,0000.18,0000.23,-000.20,-000.55,-000.20,-000.12,0000.34,-000.01,0000.05,21.1,27.4,,00.0,0643.6,31.2
2021-12-16T16:25:00Z,00000200,01000000,0000.68,0000.32,-000.12,0000.36,-000.08,0000.13,0000.13,0000.43,0000.17,21.0,27.4,,00.0,0643.6,31.2
2021-12-16T16:26:00Z,00000200,01000000,-000.42,0000.03,0000.30,0000.26,0000.03,0000.03,-000.22,-000.12,-000.21,21.0,27.4,,00.0,0643.6,31.2
2021-12-16T16:27:00Z,00000200,01000000,0000.09,0000.23,0000.02,-000.28,0000.04,0000.03,0000.07,0000.04,0000.29,20.9,27.3,,00.0,0643.6,31.1
2021-12-16T16:28:00Z,00000200,01000000,-000.52,0000.17,0000.26,-000.17,-000.21,0000.14,-000.02,0000.22,-000.02,20.8,27.3,,00.0,0643.5,31.1
2021-12-16T16:29:00Z,00000200,01000000,-000.31,0000.22,0000.22,0000.20,-000.31,0000.23,0000.09,-000.21,0000.09,20.7,27.2,,00.0,0643.5,31.1
2021-12-16T16:30:00Z,00000200,01000000,0000.28,0000.20,0000.34,-000.73,-000.15,-000.36,-000.30,-000.27,-000.23,20.6,27.1,,00.0,0643.5,31.1
2021-12-16T16:31:00Z,00000200,01000000,-000.03,0000.16,-000.04,0000.01,0000.15,0000.25,0000.09,-000.02,0000.00,20.6,27.1,,00.0,0643.5,31.1
2021-12-16T16:32:00Z,00000200,01000000,0000.29,-000.13,0000.14,0000.30,-000.18,0000.37,0000.01,0000.14,-000.14,20.5,27.1,,00.0,0643.5,31.1
2021-12-16T16:33:00Z,00000200,01000000,0000.23,0000.19,-000.30,0000.12,-000.48,-000.10,0000.26,0000.30,0000.28,20.5,27.1,,00.0,0643.5,31.1
2021-12-16T16:34:00Z,00000200,01000000,-000.50,0000.48,-000.07,-000.14,0000.29,0000.15,0000.07,-000.05,-000.19,20.6,27.1,,00.0,0643.5,31.2
2021-12-16T16:35:00Z,00000200,01000000,-000.35,0000.25,0000.25,-000.23,-000.15,-000.30,0000.04,0000.22,0000.38,20.6,27.1,,00.0,0643.5,31.1
2021-12-16T16:36:00Z,00000200,01000000,0000.56,0000.27,0000.34,-000.35,0000.05,0000.23,0000.07,-000.10,0000.08,20.6,27.1,,00.0,0643.4,31.1
2021-12-16T16:37:00Z,00000200,01000000,0000.23,0000.13,0000.11,-000.85,0000.23,0000.11,0000.15,0000.09,-000.11,20.7,27.1,,00.0,0643.4,31.2
2021-12-16T16:38:00Z,00000200,01000000,0000.41,-000.00,0000.17,-000.29,-000.24,0000.01,-000.05,-000.06,0000.01,20.7,27.1,,00.0,0643.4,31.2
2021-12-16T16:39:00Z,00000200,01000000,-000.84,0000.40,0000.29,-000.30,-000.28,0000.30,0000.13,-000.21,-000.04,20.7,27.1,,00.0,0643.4,31.1
2021-12-16T16:40:00Z,00000200,01000000,-000.11,0000.20,0000.07,-000.09,-000.11,-000.27,0000.03,0000.27,0000.36,20.8,27.1,,00.0,0643.5,31.1
2021-12-16T16:41:00Z,00000200,01000000,0000.01,0000.07,0000.12,0000.02,-000.05,0000.51,0000.01,-000.24,-000.47,20.8,27.2,,00.0,0643.5,31.1
2021-12-16T16:42:00Z,00000200,01000000,-000.33,0000.46,0000.17,-000.08,-000.32,0000.21,0000.16,0000.72,0000.71,20.8,27.2,,00.0,0643.4,31.2
2021-12-16T16:43:00Z,00000200,01000000,-000.20,0000.32,0000.15,0000.02,-000.25,0000.08,0000.20,-000.24,-000.10,20.8,27.2,,00.0,0643.4,31.2
2021-12-16T16:44:00Z,00000200,01000000,0001.31,0000.08,0000.03,0000.28,-000.12,0000.16,-000.41,0000.08,0000.02,20.7,27.1,,00.0,0643.4,31.2
2021-12-16T16:45:00Z,00000200,01000000,-000.15,0000.02,0000.21,0000.13,-000.44,0000.22,0000.39,-000.33,-000.65,20.6,27.1,,00.0,0643.4,31.1
2021-12-16T16:46:00Z,00000200,01000000,-000.17,0000.15,-000.01,0000.29,-000.09,0000.13,-000.34,0000.43,0000.24,20.6,27.1,,00.0,0643.4,31.1
2021-12-16T16:47:00Z,00000200,01000000,-000.75,0000.28,0000.30,0000.04,0000.29,0000.18,0000.37,0000.07,0000.08,20.6,27.0,,00.0,0643.4,31.1
2021-12-16T16:48:00Z,00000200,01000000,0000.10,-000.13,0000.40,0000.15,0000.03,0000.07,0000.00,-000.38,0000.32,20.6,27.0,,00.0,0643.3,31.1
2021-12-16T16:49:00Z,00000200,01000000,0000.52,-000.21,0000.41,-000.87,-000.15,0000.46,0000.11,0000.69,-000.32,20.6,27.0,,00.0,0643.4,31.1
2021-12-16T16:50:00Z,00000200,01000000,0000.33,-000.02,0000.18,-000.06,-000.18,-000.02,-000.12,-000.53,0000.37,20.6,27.1,,00.0,0643.4,31.2
2021-12-16T16:51:00Z,00000200,01000000,0000.09,0000.17,-000.29,0000.00,-000.09,-000.10,0000.51,0000.36,-000.21,20.6,27.1,,00.0,0643.4,31.2
2021-12-16T16:52:00Z,00000200,01000000,0000.01,0000.27,0000.34,-000.36,0000.11,0000.20,0000.08,0000.21,0000.30,20.7,27.1,,00.0,0643.3,31.2
2021-12-16T16:53:00Z,00000200,01000000,0000.07,0000.14,-000.01,0000.18,-000.09,0000.18,-000.21,-000.11,-000.01,20.7,27.1,,00.0,0643.3,31.2
2021-12-16T16:54:00Z,00000200,01000000,-000.15,0000.11,-000.12,-000.01,-000.05,0000.17,-000.08,0000.17,-000.08,20.8,27.1,,00.0,0643.4,31.2
2021-12-16T16:55:00Z,00000200,01000000,0000.19,0000.11,-000.30,0000.36,-000.02,-000.22,0000.34,0000.25,0000.54,20.8,27.1,,00.0,0643.3,31.2
2021-12-16T16:56:00Z,00000200,01000000,0000.17,-000.24,0000.47,0000.40,-000.11,0000.18,-000.06,-000.11,-000.40,20.8,27.2,,00.0,0643.4,31.2
2021-12-16T16:57:00Z,00000200,41000000,,,,,,,-000.83,-000.23,-000.19,20.9,27.2,,00.0,0643.3,31.2
2021-12-16T16:58:00Z,00000200,61000000,,,,,,,0000.56,0000.08,0000.29,20.6,27.3,,00.0,0642.4,31.2
2021-12-16T16:59:00Z,00000200,21000000,,,,,,,0000.10,0000.15,-000.09,20.6,27.4,,00.0,0642.4,31.2
